Terminal Aerodrome Forecast
Issued by NWS

Home | Current Version | Previous Version | Text Only | Print | Product List | Glossary On
Versions: 1 2 3 4 5 6 7 8 9 10 11 12 13 14 15 16 17 18 19 20 21 22 23 24 25
000
FTAK31 PAFA 252052 AAA
TAFAQT
TAF AMD
PAQT 252052Z 2521/2618 12004KT P6SM BKN080
     FM261200 14010KT P6SM OVC050
     FM261500 13007KT P6SM -SHSN OVC015=

USA.gov is the U.S. government's official web portal to all federal, state and local government web resources and services.